FW6396 Weather Reports


time (UTC)temp
F
wind
direction
speed
knots
gust
knots
rain 1hr
in
rain 24hr
in
rain mn
in
humidity
%
barometer
mb
20260507104554 56 0 0.0 0.0 0.00 0.00 0.00 61 1011.2
20260507103053 56 0 0.0 0.0 0.00 0.00 0.00 61 1011.2
20260507101550 56 0 0.0 0.0 0.00 0.00 0.00 60 1011.2
20260507100057 56 0 0.0 0.0 0.00 0.00 0.00 59 1011.1
20260507094550 56 0 0.0 0.0 0.00 0.00 0.00 60 1011.3
20260507093052 54 0 0.0 3.5 0.00 0.00 0.00 62 1011.3
20260507091554 53 0 0.0 0.0 0.00 0.00 0.00 64 1011.4
20260507090054 53 0 0.0 0.9 0.00 0.00 0.00 64 1011.4
20260507084558 52 0 0.0 0.0 0.00 0.00 0.00 65 1011.6
20260507083054 51 0 0.0 0.9 0.00 0.00 0.00 66 1011.6
20260507081554 51 0 0.0 0.0 0.00 0.00 0.00 67 1011.6
20260507080117 51 0 0.0 0.0 0.00 0.00 0.00 68 1011.6
20260507074555 50 0 0.0 0.0 0.00 0.00 0.00 68 1011.9
20260507073052 50 0 0.0 0.0 0.00 0.00 0.00 68 1011.9
20260507071550 49 0 0.0 0.0 0.00 0.00 0.00 69 1011.8
20260507070048 49 0 0.0 0.0 0.00 0.00 0.00 68 1011.8
20260507064552 48 0 0.0 0.0 0.00 0.00 0.00 70 1011.7
20260507063057 47 0 0.0 0.0 0.00 0.00 0.00 72 1012.0
20260507061546 47 0 0.0 0.0 0.00 0.00 0.00 70 1011.9
20260507060051 47 0 0.0 0.9 0.00 0.00 0.00 71 1012.1
20260507054552 47 0 0.0 0.0 0.00 0.00 0.00 71 1012.0
20260507053053 46 0 0.0 0.0 0.00 0.00 0.00 71 1012.0
20260507051552 46 0 0.0 0.9 0.00 0.00 0.00 71 1012.0
20260507050056 46 0 0.0 0.0 0.00 0.00 0.00 72 1012.3
20260507044553 46 0 0.0 0.0 0.00 0.00 0.00 72 1012.4
20260507043050 46 0 0.0 0.0 0.00 0.00 0.00 71 1012.5
20260507041553 46 0 0.0 0.0 0.00 0.00 0.00 72 1012.4
20260507040056 46 0 0.0 0.0 0.00 0.00 0.00 72 1012.5
20260507034555 46 0 0.0 0.0 0.00 0.00 0.00 73 1012.5
20260507033055 46 0 0.0 0.0 0.00 0.00 0.00 72 1012.8
20260507031556 46 0 0.0 0.0 0.00 0.00 0.00 73 1012.7
20260507030055 45 0 0.0 0.0 0.00 0.00 0.00 73 1012.9
20260507024605 45 0 0.0 0.0 0.00 0.00 0.00 72 1012.9
20260507023054 45 0 0.0 0.0 0.00 0.00 0.00 72 1013.1
20260507021553 46 0 0.0 0.0 0.00 0.00 0.00 71 1013.2
20260507020108 46 0 0.0 0.0 0.00 0.00 0.00 70 1013.2
20260507014604 46 0 0.0 0.0 0.00 0.00 0.00 69 1013.4
20260507013056 46 0 0.0 0.0 0.00 0.00 0.00 68 1013.2
20260507011552 46 0 0.0 0.0 0.00 0.00 0.00 67 1013.2
20260507010056 47 0 0.0 0.0 0.00 0.00 0.00 67 1013.4
20260507004602 47 0 0.0 0.0 0.00 0.00 0.00 65 1013.3
20260507003053 47 0 0.0 0.0 0.00 0.00 0.00 65 1013.3
20260507001555 47 0 0.0 0.0 0.00 0.00 0.00 64 1013.2
20260507000051 47 0 0.0 0.0 0.00 0.00 0.00 64 1013.1
20260506234552 48 0 0.0 0.0 0.00 0.00 0.00 63 1013.3
20260506233108 48 0 0.0 0.0 0.00 0.00 0.00 62 1013.5
20260506231600 48 0 0.0 0.0 0.00 0.00 0.00 62 1013.3
20260506230056 48 0 0.0 0.0 0.00 0.00 0.00 62 1013.5
20260506224556 48 0 0.0 0.0 0.00 0.00 0.00 61 1013.8
20260506223052 48 0 0.0 0.9 0.00 0.00 0.00 61 1013.7
20260506221550 48 0 0.0 0.0 0.00 0.00 0.00 62 1013.8
20260506220049 48 0 0.0 0.0 0.00 0.00 0.00 63 1013.9
20260506214554 48 0 0.0 0.0 0.00 0.00 0.00 62 1014.0
20260506213110 49 0 0.0 0.0 0.00 0.00 0.00 62 1014.1
20260506211551 49 0 0.0 0.0 0.00 0.00 0.00 62 1014.0
20260506210048 49 0 0.0 0.0 0.00 0.00 0.00 62 1014.1
20260506204552 49 0 0.0 0.0 0.00 0.00 0.00 63 1014.1
20260506203052 49 0 0.0 0.0 0.00 0.00 0.00 63 1014.2
20260506201552 49 0 0.0 0.0 0.00 0.00 0.00 63 1014.3
20260506200051 49 0 0.0 0.0 0.00 0.00 0.00 63 1014.3
20260506194554 49 0 0.0 0.0 0.00 0.00 0.00 64 1014.3
20260506193058 49 0 0.0 0.0 0.00 0.00 0.00 66 1014.4
20260506191600 50 0 0.0 0.0 0.00 0.00 0.00 66 1014.5
20260506190058 50 0 0.0 0.0 0.00 0.00 0.00 64 1014.4
20260506184556 50 0 0.0 0.0 0.00 0.00 0.00 64 1014.4
20260506183058 50 0 0.0 0.0 0.00 0.00 0.00 63 1014.5
20260506181621 51 0 0.0 0.0 0.00 0.00 0.00 62 1014.4
20260506180058 51 0 0.0 0.0 0.00 0.00 0.00 61 1014.6
20260506174556 51 0 0.0 0.0 0.00 0.00 0.00 59 1014.7
20260506173113 52 0 0.0 0.0 0.00 0.00 0.00 59 1014.7
20260506171602 52 0 0.0 0.0 0.00 0.00 0.00 57 1014.7
20260506170052 53 0 0.0 0.0 0.00 0.00 0.00 57 1014.7
20260506164607 53 0 0.0 0.0 0.00 0.00 0.00 58 1015.0
20260506163052 52 0 0.0 0.0 0.00 0.00 0.00 59 1015.2
20260506161548 52 0 0.0 0.0 0.00 0.00 0.00 60 1015.3
20260506160054 52 0 0.0 0.0 0.00 0.00 0.00 65 1015.2
20260506154558 52 0 0.0 0.9 0.00 0.00 0.00 70 1015.6
20260506153110 52 0 0.0 0.0 0.00 0.00 0.00 67 1015.6
20260506151552 52 0 0.0 0.0 0.00 0.00 0.00 68 1015.7
20260506144557 52 0 0.0 0.0 0.00 0.00 0.00 64 1015.8
20260506143055 53 0 0.0 0.0 0.00 0.00 0.00 62 1015.8
20260506141551 55 0 0.0 0.0 0.00 0.00 0.00 58 1016.0
20260506140053 54 0 0.0 0.0 0.00 0.00 0.00 59 1016.1
20260506134553 54 0 0.0 0.0 0.00 0.00 0.00 59 1016.2
20260506133052 53 0 0.0 0.0 0.00 0.00 0.00 58 1016.4
20260506131555 52 0 0.0 0.0 0.00 0.00 0.00 61 1016.5
20260506130051 52 0 0.0 0.0 0.00 0.00 0.00 59 1016.6
20260506124601 52 0 0.0 0.0 0.00 0.00 0.00 57 1016.8
20260506123050 51 0 0.0 0.0 0.00 0.00 0.00 58 1016.8
20260506121551 52 0 0.0 0.0 0.00 0.00 0.00 61 1017.0
20260506120051 52 0 0.0 0.0 0.00 0.00 0.00 62 1017.2
20260506114553 51 0 0.0 0.0 0.00 0.00 0.00 62 1017.1
20260506113047 52 0 0.0 0.0 0.00 0.00 0.00 63 1017.1
20260506111551 52 0 0.0 0.0 0.00 0.00 0.00 65 1017.2
20260506110055 50 0 0.0 0.0 0.00 0.00 0.00 63 1017.3